Погода Луговая

Погода Луговая : погода сейчас, прогноз погоды и архив. Всё, что Вы хотите узнать о погоде Луговая!

Хотите узнать прогноз погоды Луговая? Тогда Вам сюда: Погода Луговая

Поиск расширенной информации на нашем сайте:

Полезная информация: ВИП аренда внедорожников с водителем.
Тампоны clean point купить проще и дешевле здесь!

Другие новости

Новости СМИ2

Главная страница сайта

Новости сайта

02.10.2013

Напоминаем, что на нашем новом сайте вы можете получить высокодетализированные прогнозы погоды по пунктам России, СНГ и мира (включающие важные для авиации метеовеличины, такие как направление и скорость ветра, видимость, явления погоды, количество и форма облачности, нижняя и верхняя граница облачности), а также ознакомиться с разнообразными материалами по авиационной метеорологии и подборкой полезных ссылок на эту тему.

Сайт Метеоцентр.Азия посвящён разработке технологий оптимизации авиаметеорологического обслуживания, включая проектирование и перспективное создание нескольких автоматизированных авиаметеорологических систем:
- система выпуска высокодетальных прогностических карт явлений погоды для нижнего воздушного пространства по России и ближнему зарубежью;
- система верификации прогнозов TAF (выпускаемых синоптиками официальных АМСГ РФ и ближнего зарубежья) и AUTOTAF (выпускаемых сайтом Метеоцентр.Азия) - выявление ошибок, онлайн-сопоставление с фактической погодой METAR, автоматическое внесение коррективов в прогнозы при резком отклонении фактической погоды от прогноза, подсчёт оправдываемости прогнозов по элементам и в целом;
- система обработки, анализа и отображения авиаметеорологической информации для применения провайдерами метеорологической информации.

Рекомендуем: Стихи и поздравления на заказ заказ стихов.

Погода Луговая - сегодня

Время (UTC), дата Ветер
(°,м/с) 
Видим.   Явления Облачность Т
(°С)
Тd
(°С)
f(%) Тe
(°С)
Pmin
(гПа)
dP
(гПа)
Po
(мм)
O2
(г/м3)
Тmin Tmax R s Состояние
почвы
00 22.03.17 тихо ()   10 км  слаб. дождь  10/10 1000 м 
[Ns]
+2.5 -1.1 77 +3  1018.8  1.7  701  280           
03 22.03.17 тихо ()   10 км  слаб. дождь  10/10 1000 м 
[Ns]
+3.2 +0 79 +3  1020.6  1.9  703  280      0.6     
06 22.03.17 070 (В) 20000 м  {дождь}  9/9 1000 м 
[Sc]
+7.4 +1.7 67 +7  1020.2  0.8  703  275  +2.2    0.6     
09 22.03.17 050 (СВ) 20000 м    9/9 1000 м 
[Sc]
+12.2 +5.8 65 +13  1018.4  -0.2  703  270           
12 22.03.17 090 (В) 20000 м    6/4 1000 м средняя 
[Sc|Ac trans]
+13.8 +7.3 65 +14  1017.7  -0.2  703  268           
15 22.03.17 090 (В) 10 км    6/4 1000 м средняя 
[Sc|Ac trans]
+9.4 +3.6 67 +9  1019.7  0.6  703  273    +14.4     
18 22.03.17 тихо ()   10 км    3/0 средняя 
[Ac trans]
+5.2 +0.3 71 +5  1020  -1  703  278    +14.4     
21 22.03.17 тихо ()   10 км    6/0 средняя 
[Ac trans]
+3 -1.2 74 +3  1020.4  -0.3  702  280           
00 23.03.17 тихо ()   10 км    6/0 средняя 
[Ac trans]
+2.2 -1.8 75 +2  1020.8  0.1  702  281           
03 23.03.17 тихо ()   20000 м    10/0 средняя 
[As op]
+2.6 -1.6 74 +3  1022.5  1.7  704  281           
06 23.03.17 тихо ()   20000 м    9/0 средняя 
[Ac trans]
+13.9 +7.7 66 +14  1020  1.1  705  269  +1.9         
09 23.03.17 050 (СВ) 20000 м    8/0 средняя, верхняя 
[Ac trans|Ci fib]
+18.1 +9.4 57 +22  1018.3  -0.5  704  264           
12 23.03.17 020 (С) 20000 м    10/6 1000 м средняя 
[Sc|Ac trans]
+16.4 +8.1 58 +17  1020.2  1.3  705  267           
15 23.03.17 180 (Ю) 10 км    9/6 1000 м средняя 
[Sc|Ac trans]
+12.4 +6.5 67 +13  1022.6  1.1  706  271    +18.6       
18 23.03.17 тихо ()   10 км    3/0 средняя 
[Ac trans]
+8.6 +4.3 74 +9  1022.7  -1  705  275    +18.6       
21 23.03.17 тихо ()   10 км    3/0 средняя 
[Ac trans]
+4.6 +0.7 76 +5  1022.8  -1.1  704  279           
00 24.03.17 тихо ()   10 км    5/0 средняя 
[Ac trans]
+3.8 +0.1 77 +4  1021.8  -1.2  704  279           
03 24.03.17 тихо ()   20000 м    9/0 средняя 
[Ac trans]
+6.1 +1.6 73 +6  1020.3  -0.6  703  277           
06 24.03.17 270 (З) 20000 м    10/10 1000 м 
[Sc]
+13.1 +7.8 70 +13  1017.8  -0.3  703  269  +3.5         
09 24.03.17 тихо ()   20000 м    10/10 1000 м 
[Sc]
+15.5 +7.4 58 +16  1014.8  -2.1  701  266           
12 24.03.17 070 (В) 20000 м    10/0 средняя 
[As trans]
+13.8 +7.3 65 +15  1014.2  -1.1  700  267           
15 24.03.17 250 (З) 10 км    10/10 1000 м 
[Sc]
+13.6 +7.3 66 +14  1016.9  2.3  702  268    +16.2       
18 24.03.17 270 (З) 10 км    6/6 1000 м 
[Sc]
+6.6 +1.7 71 +6  1020.6  1.5  703  276    +16.2       
21 24.03.17 270 (З) 10 км    10/10 1000 м 
[Sc]
+6.2 +1.4 71 +6  1021.3  0.6  704  277           
00 25.03.17 тихо ()   10 км    10/10 1000 м 
[Sc]
+4.8 +0.7 75 +5  1022.6  0.7  704  279           
Время (UTC), дата Ветер
(°,м/с) 
Видим.   Явления Облачность Т
(°С)
Тd
(°С)
f(%) Тe
(°С)
Pmin
(гПа)
dP
(гПа)
Po
(мм)
O2
(г/м3)
Тmin Tmax R s Состояние
почвы

Для получения пояснительной информации подведите курсор к названию столбца.

ПОГОДА Луговая - архив

Всё, что Вы хотите узнать о погоде Луговая - удобно и подробно!

Выберите нужную дату (начиная с 1 января 2015* года) и нажмите кнопку "Найти".
Будут отображены архивные сводки погоды по пункту Луговая, начиная с указанной даты.


Отображать данные в формате CSV (для использования в таблицах Excel)


Внимание! Наш архив погоды предназначен исключительно для личного некоммерческого использования в познавательных целях. Если Вам необходимы официальные справки о состоянии погоды (для производственных, юридических, коммерческих и т.п. целей), обращайтесь в органы Росгидромета.

*Примечание: данная дата относится к архиву по метеостанциям СССР (Россия, СНГ, Балтия).
Архив по метеостанциям Зарубежной Европы и Азии (кроме Китая) хранится 10 дней, по другим регионам земного шара (Китай, Африка, Америка, Австралия, Океания) - 1 день.

Луговая - район местоположения метеостанции


Название, широта, долгота, высота метеостанции:
Луговая 42.9°ш. 72.8°д. 683 м над ур. моря [Казахстан]

Дополнительная информация

В oтличие oт бoльшинства пoгoдных сайтoв мы публикуем пoдрoбную метеoинфoрмацию в детальнoм прoфессиoнальнoм фoрмате.

Характеристики температуры и влажнoсти вoздуха измеряются на высoте 2 м в тени вдали oт зданий и деревьев.
Скoрoсть ветра измеряется на высoте 10 м (на урoвне рoста челoвека скoрoсть ветра ниже в 1.5-2 раза). Если метеoстанция нахoдится в гoрoде или в лесу, тo скoрoсть ветра занижена на 2-4 м/с пo сравнению с oткрытым местoм. Скoрoсть ветра над акватoриями крупных рек и oзёр, а также на вершинах хoлмoв на 2-5 м/с выше, чем в oбычных услoвиях.
Атмoсфернoе давление в разных тoчках местнoсти мoжет значительнo oтличаться oт давления на метеoстанции, в зависимoсти oт услoвий рельефа (при пoдъёме на 10 м давление пoнижается примернo на 1 мм рт.ст.).